User: anonymous   Login
Location: Paddlesworth
(51.1000°N, 1.1333°E)
Time: 10:58:37
(UTC+00:00)
Language:

STARLINK-1521 - Orbit

View from above orbital plane
View from above orbital plane
View from above satellite
View from above satellite

Ground track
Ground track

The orbit data is extracted from the following two-line orbital elements,

1 45768U 20038AQ  21334.83479213 -.00000197  00000-0  56736-5 0  9993
2 45768  53.0574  19.0906 0001294  60.7684 299.3434 15.06397989 81378
Epoch (UTC): 30 November 2021 20:02:06
Eccentricity: 0.0001294
inclination: 53.0574°
perigee height: 546 km
apogee height: 548 km
right ascension of ascending node: 19.0906°
argument of perigee: 60.7684°
revolutions per day: 15.06397989
mean anomaly at epoch: 299.3434°
orbit number at epoch: 8137

The dashed part of the orbit path shows where the satellite is in the earth's shadow,  

DLR